Terminal Aerodrome Forecast
Issued by NWS Miami, FL

Home | Current Version | Previous Version | Text Only | Print | Product List | Glossary On
Versions: 1 2 3 4 5 6 7 8 9 10 11 12 13 14 15 16 17 18 19 20 21 22 23 24 25 26 27 28 29 30 31 32 33 34 35 36 37 38 39 40 41 42 43 44 45 46 47 48 49 50
000
FTUS42 KMFL 300533
TAFAPF
TAF
KAPF 300533Z 3006/3106 26005KT P6SM VCSH FEW025 SCT080 BKN250
     FM301200 26008KT P6SM VCTS SCT025CB BKN060 BKN200
     FM301800 26008KT P6SM VCSH SCT030 BKN060 BKN200=

USA.gov is the U.S. government's official web portal to all federal, state and local government web resources and services.